FW8733 Weather Reports


Display with metric or nautical units.
time (UTC)temp
F
wind
direction
speed
MPH
gust
MPH
rain 1hr
in
rain 24hr
in
rain mn
in
humidity
%
barometer
mb
20260506181713 79 173 0.0 0.0 0.00 0.00 0.00 75 1014.7
20260506181210 80 211 2.0 2.0 0.00 0.00 0.00 71 1014.9
20260506180707 80 211 0.0 0.0 0.00 0.00 0.00 71 1014.8
20260506180203 80 244 0.0 1.0 0.00 0.00 0.00 70 1014.9
20260506175659 78 181 0.0 1.0 0.00 0.00 0.00 73 1015.0
20260506175156 78 204 1.0 1.0 0.00 0.00 0.00 73 1014.9
20260506174654 78 171 1.0 2.0 0.00 0.00 0.00 73 1014.8
20260506174151 78 254 1.0 1.0 0.00 0.00 0.00 72 1014.6
20260506173649 77 217 0.0 1.0 0.00 0.00 0.00 76 1014.5
20260506173145 76 216 0.0 1.0 0.00 0.00 0.00 76 1014.4
20260506172642 74 189 1.0 2.0 0.00 0.00 0.00 78 1014.5
20260506172139 74 210 1.0 1.0 0.00 0.00 0.00 80 1014.8
20260506171636 74 222 0.0 0.0 0.00 0.00 0.00 79 1014.9
20260506171134 74 211 2.0 3.0 0.00 0.00 0.00 76 1015.0
20260506170626 73 208 1.0 2.0 0.00 0.00 0.00 81 1014.8
20260506170122 72 209 1.0 1.0 0.00 0.00 0.00 79 1014.9
20260506165621 71 259 0.0 1.0 0.00 0.00 0.00 82 1015.2
20260506165111 71 236 2.0 5.0 0.00 0.00 0.00 80 1015.2
20260506164609 71 215 2.0 3.0 0.00 0.00 0.00 79 1015.2
20260506164106 70 206 1.0 1.0 0.00 0.00 0.00 84 1015.0
20260506163601 68 197 5.0 6.0 0.00 0.00 0.00 85 1015.2
20260506163057 68 223 0.0 0.0 0.00 0.00 0.00 87 1015.4
20260506162554 66 215 0.0 0.0 0.00 0.00 0.00 89 1015.5
20260506162051 65 215 0.0 0.0 0.00 0.00 0.00 93 1015.8
20260506161549 64 215 0.0 0.0 0.00 0.00 0.00 92 1015.9
20260506161045 64 218 0.0 0.0 0.00 0.00 0.00 92 1016.8
20260506160543 64 254 0.0 1.0 0.00 0.00 0.00 91 1017.2
20260506160040 65 244 2.0 3.0 0.00 0.00 0.00 91 1017.2
20260506155539 65 235 0.0 1.0 0.00 0.00 0.00 91 1016.6
20260506153715 69 209 1.0 2.0 0.00 0.00 0.00 90 1015.2
20260506153213 69 222 2.0 2.0 0.00 0.00 0.00 91 1015.1
20260506152709 69 185 0.0 1.0 0.00 0.00 0.00 91 1015.2
20260506152207 70 212 1.0 2.0 0.00 0.00 0.00 90 1015.3
20260506151706 71 224 1.0 2.0 0.00 0.00 0.00 89 1014.6
20260506151202 73 292 4.0 7.0 0.00 0.00 0.00 87 1014.6
20260506150658 78 342 3.0 3.0 0.00 0.00 0.00 87 1014.9
20260506150155 78 215 0.0 0.0 0.00 0.00 0.00 89 1014.2
20260506145652 78 215 1.0 1.0 0.00 0.00 0.00 89 1014.2
20260506145149 78 215 0.0 0.0 0.00 0.00 0.00 90 1014.1
20260506144647 78 215 0.0 0.0 0.00 0.00 0.00 90 1013.7
20260506144143 78 214 0.0 0.0 0.00 0.00 0.00 91 1013.7
20260506143641 77 209 2.0 3.0 0.00 0.00 0.00 91 1013.3
20260506143139 77 207 3.0 3.0 0.00 0.00 0.00 91 1013.4
20260506142637 77 197 1.0 2.0 0.00 0.00 0.00 91 1013.2
20260506142135 78 225 1.0 2.0 0.00 0.00 0.00 90 1013.2
20260506141632 77 231 2.0 3.0 0.00 0.00 0.00 91 1012.8
20260506141130 78 218 3.0 5.0 0.00 0.00 0.00 90 1012.7
20260506140628 78 179 3.0 5.0 0.00 0.00 0.00 91 1013.0
20260506140125 77 181 3.0 3.0 0.00 0.00 0.00 93 1013.2
20260506135622 76 186 3.0 3.0 0.00 0.00 0.00 93 1013.0
20260506135118 76 217 2.0 3.0 0.00 0.00 0.00 93 1013.5
20260506134614 76 200 3.0 3.0 0.00 0.00 0.00 94 1013.2
20260506134110 76 199 1.0 1.0 0.00 0.00 0.00 94 1012.8
20260506133608 76 206 1.0 1.0 0.00 0.00 0.00 94 1012.9
20260506133104 76 206 2.0 2.0 0.00 0.00 0.00 94 1012.8
20260506132602 76 199 1.0 1.0 0.00 0.00 0.00 95 1012.7
20260506132059 76 199 1.0 2.0 0.00 0.00 0.00 94 1012.8
20260506131556 76 199 1.0 2.0 0.00 0.00 0.00 95 1012.9
20260506131052 76 184 3.0 3.0 0.00 0.00 0.00 95 1012.6
20260506130549 75 181 3.0 3.0 0.00 0.00 0.00 95 1012.3
20260506130047 75 183 2.0 2.0 0.00 0.00 0.00 95 1012.4
20260506125545 75 168 1.0 2.0 0.00 0.00 0.00 96 1012.8
20260506125042 75 169 2.0 3.0 0.00 0.00 0.00 96 1012.3
20260506124540 75 199 1.0 1.0 0.00 0.00 0.00 96 1012.1
20260506124038 75 201 1.0 1.0 0.00 0.00 0.00 96 1012.0
20260506123535 75 201 1.0 1.0 0.00 0.00 0.00 96 1012.3
20260506123033 75 194 3.0 3.0 0.00 0.00 0.00 97 1012.3
20260506122529 75 225 1.0 1.0 0.00 0.00 0.00 97 1012.1
20260506122028 75 227 0.0 1.0 0.00 0.00 0.00 97 1012.1
20260506121525 74 227 0.0 0.0 0.00 0.00 0.00 97 1012.3
20260506121021 74 228 0.0 0.0 0.00 0.00 0.00 97 1012.3
20260506120519 74 227 0.0 0.0 0.00 0.00 0.00 97 1012.3
20260506120017 74 227 0.0 0.0 0.00 0.00 0.00 96 1012.2
20260506115514 74 227 0.0 0.0 0.00 0.00 0.00 96 1012.2
20260506115013 75 227 0.0 0.0 0.00 0.00 0.00 96 1011.9
20260506114509 75 227 0.0 0.0 0.00 0.00 0.00 96 1011.7
20260506114008 75 227 0.0 1.0 0.00 0.00 0.00 96 1011.9
20260506113505 75 228 0.0 0.0 0.00 0.00 0.00 96 1011.8
20260506113002 75 228 0.0 0.0 0.00 0.00 0.00 96 1012.3
20260506112459 75 228 0.0 0.0 0.00 0.00 0.00 96 1012.4
20260506111956 75 228 0.0 0.0 0.00 0.00 0.00 95 1012.2
20260506111454 75 228 0.0 0.0 0.00 0.00 0.00 95 1012.3
20260506110951 75 228 0.0 0.0 0.00 0.00 0.00 95 1012.2
20260506110449 75 228 0.0 0.0 0.00 0.00 0.00 95 1011.9
20260506105945 75 228 0.0 0.0 0.00 0.00 0.00 95 1012.0
20260506105442 75 228 0.0 0.0 0.00 0.00 0.00 95 1012.0
20260506104939 75 228 0.0 0.0 0.00 0.00 0.00 95 1012.1
20260506104437 75 228 0.0 0.0 0.00 0.00 0.00 94 1012.2
20260506103935 75 228 0.0 0.0 0.00 0.00 0.00 94 1011.9
20260506103432 75 227 0.0 0.0 0.00 0.00 0.00 94 1011.8
20260506102929 75 227 0.0 0.0 0.00 0.00 0.00 94 1011.9
20260506102427 75 207 0.0 0.0 0.00 0.00 0.00 94 1011.6
20260506101924 75 207 0.0 0.0 0.00 0.00 0.00 94 1011.8
20260506101420 75 207 0.0 0.0 0.00 0.00 0.00 94 1011.9
20260506100918 76 220 0.0 0.0 0.00 0.00 0.00 93 1011.6
20260506100416 76 219 0.0 0.0 0.00 0.00 0.00 93 1011.8
20260506095914 76 242 0.0 0.0 0.00 0.00 0.00 93 1011.5
20260506095412 76 207 0.0 0.0 0.00 0.00 0.00 93 1011.5
20260506094908 76 207 3.0 3.0 0.00 0.00 0.00 93 1011.7
20260506094407 76 206 0.0 0.0 0.00 0.00 0.00 93 1011.5
20260506093904 76 205 1.0 1.0 0.00 0.00 0.00 93 1011.4
20260506093401 76 206 0.0 1.0 0.00 0.00 0.00 93 1011.2
20260506092859 76 228 0.0 1.0 0.00 0.00 0.00 93 1011.1
20260506092357 76 216 1.0 1.0 0.00 0.00 0.00 93 1011.1
20260506091853 76 217 0.0 0.0 0.00 0.00 0.00 94 1011.3
20260506091351 76 212 0.0 0.0 0.00 0.00 0.00 94 1011.1
20260506090848 76 210 1.0 1.0 0.00 0.00 0.00 94 1011.1
20260506090346 76 214 1.0 2.0 0.00 0.00 0.00 94 1011.0
20260506085842 76 185 1.0 2.0 0.00 0.00 0.00 93 1011.1
20260506085338 76 187 3.0 3.0 0.00 0.00 0.00 93 1010.7
20260506084835 76 204 1.0 1.0 0.00 0.00 0.00 93 1010.9
20260506084332 76 184 3.0 3.0 0.00 0.00 0.00 93 1011.0
20260506083828 76 187 0.0 0.0 0.00 0.00 0.00 93 1010.9
20260506083326 76 207 2.0 3.0 0.00 0.00 0.00 93 1011.0
20260506082823 76 198 2.0 3.0 0.00 0.00 0.00 93 1011.0
20260506082320 76 195 1.0 2.0 0.00 0.00 0.00 93 1011.0
20260506081816 76 220 1.0 1.0 0.00 0.00 0.00 93 1011.0
20260506081314 76 222 0.0 0.0 0.00 0.00 0.00 93 1011.0
20260506080812 76 187 1.0 2.0 0.00 0.00 0.00 92 1010.9
20260506080308 76 225 1.0 2.0 0.00 0.00 0.00 92 1011.0
20260506073252 76 170 4.0 5.0 0.00 0.00 0.00 91 1011.3
20260506072749 76 215 2.0 2.0 0.00 0.00 0.00 91 1011.1
20260506072246 76 139 6.0 9.0 0.00 0.00 0.00 91 1011.2
20260506071744 76 174 4.0 5.0 0.00 0.00 0.00 91 1011.3
20260506071242 76 143 1.0 2.0 0.00 0.00 0.00 91 1011.6
20260506070738 76 230 3.0 5.0 0.00 0.00 0.00 91 1011.4
20260506070235 76 230 3.0 5.0 0.00 0.00 0.00 91 1011.1
20260506062212 76 215 2.0 2.0 0.00 0.00 0.00 92 1011.4
20260506061708 76 187 3.0 3.0 0.00 0.00 0.00 92 1011.4
20260506061206 76 210 4.0 5.0 0.00 0.00 0.00 92 1011.4
20260506060704 76 203 2.0 3.0 0.00 0.00 0.00 92 1011.2
20260506060201 76 161 8.0 9.0 0.00 0.00 0.00 92 1011.3
20260506051133 76 190 3.0 6.0 0.00 0.00 0.00 92 1011.2
20260506050631 76 177 3.0 3.0 0.00 0.00 0.00 93 1011.4
20260506050128 76 187 2.0 3.0 0.00 0.00 0.00 92 1011.3
20260506045121 76 201 2.0 2.0 0.00 0.00 0.00 92 1011.4
20260506044619 76 185 3.0 3.0 0.00 0.00 0.00 92 1011.4
20260506044116 77 176 4.0 6.0 0.00 0.00 0.00 92 1011.2
20260506043613 77 156 2.0 3.0 0.00 0.00 0.00 92 1011.2
20260506043111 77 199 2.0 2.0 0.00 0.00 0.00 92 1011.2
20260506042610 77 223 1.0 1.0 0.00 0.00 0.00 92 1011.3
20260506042107 77 123 3.0 5.0 0.00 0.00 0.00 92 1011.3
20260506041606 77 144 5.0 8.0 0.00 0.00 0.00 92 1011.2
20260506041102 77 157 0.0 1.0 0.00 0.00 0.00 91 1011.2
20260506040600 77 131 3.0 5.0 0.00 0.00 0.00 91 1011.1
20260506040056 77 189 4.0 6.0 0.00 0.00 0.00 91 1011.0
20260506035553 77 156 4.0 6.0 0.00 0.00 0.00 91 1011.0
20260506035050 77 219 3.0 3.0 0.00 0.00 0.00 91 1011.2
20260506034547 77 207 1.0 2.0 0.00 0.00 0.00 91 1010.9
20260506034044 77 176 3.0 3.0 0.00 0.00 0.00 90 1010.6
20260506033541 77 187 2.0 3.0 0.00 0.00 0.00 90 1010.8
20260506033038 77 175 3.0 3.0 0.00 0.00 0.00 90 1010.9
20260506032536 77 212 1.0 1.0 0.00 0.00 0.00 89 1010.8
20260506032032 78 137 1.0 2.0 0.00 0.00 0.00 88 1010.7
20260506031530 78 210 1.0 2.0 0.00 0.00 0.00 88 1010.3
20260506031027 78 136 1.0 1.0 0.00 0.00 0.00 88 1010.6
20260506030525 78 218 0.0 0.0 0.00 0.00 0.00 87 1010.4
20260506030022 78 195 1.0 2.0 0.00 0.00 0.00 87 1010.4
20260506025519 78 196 1.0 1.0 0.00 0.00 0.00 87 1010.4
20260506025015 78 205 1.0 2.0 0.00 0.00 0.00 87 1010.2
20260506024512 78 203 2.0 2.0 0.00 0.00 0.00 87 1010.1
20260506024008 78 196 0.0 0.0 0.00 0.00 0.00 86 1010.0
20260506023504 78 212 2.0 2.0 0.00 0.00 0.00 86 1010.2
20260506023002 78 168 2.0 2.0 0.00 0.00 0.00 86 1010.0
20260506022459 78 224 0.0 0.0 0.00 0.00 0.00 86 1009.9
20260506021957 79 205 2.0 2.0 0.00 0.00 0.00 85 1009.6
20260506021454 79 208 1.0 1.0 0.00 0.00 0.00 85 1009.6
20260506020951 79 212 1.0 1.0 0.00 0.00 0.00 85 1009.7
20260506020449 79 170 5.0 7.0 0.00 0.00 0.00 84 1009.4
20260506015946 79 219 1.0 2.0 0.00 0.00 0.00 84 1009.4
20260506015443 80 203 2.0 3.0 0.00 0.00 0.00 83 1009.2
20260506014940 80 207 2.0 2.0 0.00 0.00 0.00 83 1009.1
20260506014437 80 158 3.0 3.0 0.00 0.00 0.00 83 1009.2
20260506013933 80 187 1.0 2.0 0.00 0.00 0.00 82 1009.0
20260506013432 80 218 1.0 2.0 0.00 0.00 0.00 82 1008.8
20260506012927 80 192 2.0 2.0 0.00 0.00 0.00 82 1009.2
20260506012424 80 195 1.0 2.0 0.00 0.00 0.00 82 1009.1
20260506011921 81 163 1.0 2.0 0.00 0.00 0.00 81 1009.2
20260506011418 81 189 3.0 5.0 0.00 0.00 0.00 80 1009.0
20260506010915 81 205 1.0 2.0 0.00 0.00 0.00 80 1009.1
20260506010414 81 228 2.0 2.0 0.00 0.00 0.00 79 1009.1
20260506005910 82 209 1.0 2.0 0.00 0.00 0.00 79 1009.1
20260506005408 82 211 2.0 2.0 0.00 0.00 0.00 79 1009.1
20260506004902 82 205 3.0 5.0 0.00 0.00 0.00 78 1009.2
20260506004401 82 176 2.0 2.0 0.00 0.00 0.00 78 1009.4
20260506003857 82 179 2.0 3.0 0.00 0.00 0.00 78 1009.2
20260506003353 82 181 2.0 2.0 0.00 0.00 0.00 78 1009.0
20260506002849 82 160 3.0 5.0 0.00 0.00 0.00 77 1009.2
20260506002346 83 212 0.0 1.0 0.00 0.00 0.00 77 1009.1
20260506001841 83 212 1.0 1.0 0.00 0.00 0.00 76 1009.1
20260506001339 83 220 2.0 3.0 0.00 0.00 0.00 76 1009.3
20260506000836 83 179 1.0 1.0 0.00 0.00 0.00 76 1009.3
20260506000333 83 214 2.0 3.0 0.00 0.00 0.00 75 1009.1
20260505235830 83 223 1.0 2.0 0.00 0.00 0.00 75 1009.2
20260505235327 83 175 2.0 2.0 0.00 0.00 0.00 74 1009.3
20260505234824 83 188 2.0 2.0 0.00 0.00 0.00 75 1009.0
20260505234322 83 148 2.0 6.0 0.00 0.00 0.00 75 1009.0
20260505233819 83 206 0.0 0.0 0.00 0.00 0.00 75 1008.8
20260505233317 84 227 3.0 3.0 0.00 0.00 0.00 74 1008.8
20260505232814 84 154 2.0 3.0 0.00 0.00 0.00 74 1008.7
20260505232311 84 192 4.0 5.0 0.00 0.00 0.00 75 1008.9
20260505231808 84 197 4.0 6.0 0.00 0.00 0.00 73 1008.8
20260505231306 84 201 5.0 8.0 0.00 0.00 0.00 73 1008.8
20260505230804 84 174 2.0 2.0 0.00 0.00 0.00 72 1009.0
20260505230301 84 133 6.0 7.0 0.00 0.00 0.00 72 1008.9
20260505225757 84 165 3.0 5.0 0.00 0.00 0.00 73 1008.8
20260505225254 84 214 2.0 5.0 0.00 0.00 0.00 72 1008.7
20260505224749 84 215 5.0 6.0 0.00 0.00 0.00 72 1008.8
20260505224247 84 179 5.0 7.0 0.00 0.00 0.00 72 1008.7
20260505223745 84 196 3.0 3.0 0.00 0.00 0.00 72 1008.7
20260505223241 85 208 4.0 5.0 0.00 0.00 0.00 71 1008.6
20260505222737 85 208 3.0 5.0 0.00 0.00 0.00 72 1008.6
20260505222233 85 161 2.0 3.0 0.00 0.00 0.00 72 1008.6
20260505221731 85 185 5.0 7.0 0.00 0.00 0.00 71 1008.7
20260505221227 84 202 2.0 2.0 0.00 0.00 0.00 72 1008.7
20260505220724 85 155 4.0 5.0 0.00 0.00 0.00 72 1008.7
20260505220222 86 145 5.0 7.0 0.00 0.00 0.00 71 1008.9
20260505215720 85 206 1.0 2.0 0.00 0.00 0.00 71 1008.7
20260505215217 86 198 8.0 11.0 0.00 0.00 0.00 70 1008.8
20260505214715 86 173 3.0 5.0 0.00 0.00 0.00 70 1008.7
20260505214212 86 164 6.0 7.0 0.00 0.00 0.00 70 1009.0
20260505213709 86 145 3.0 5.0 0.00 0.00 0.00 70 1009.0
20260505213206 86 183 4.0 6.0 0.00 0.00 0.00 70 1009.0
20260505212702 86 203 5.0 6.0 0.00 0.00 0.00 70 1009.0
20260505212200 86 134 7.0 9.0 0.00 0.00 0.00 71 1009.0
20260505211656 87 173 4.0 5.0 0.00 0.00 0.00 71 1009.5
20260505211154 87 174 5.0 6.0 0.00 0.00 0.00 68 1009.1
20260505210650 87 145 4.0 7.0 0.00 0.00 0.00 67 1009.0
20260505210147 87 195 3.0 3.0 0.00 0.00 0.00 69 1009.1
20260505205644 87 184 2.0 2.0 0.00 0.00 0.00 68 1009.2
20260505205143 86 217 0.0 1.0 0.00 0.00 0.00 69 1009.1
20260505204639 87 219 3.0 5.0 0.00 0.00 0.00 68 1009.5
20260505204137 87 201 5.0 7.0 0.00 0.00 0.00 67 1009.3
20260505203634 86 209 5.0 7.0 0.00 0.00 0.00 68 1009.5
20260505203131 86 204 1.0 1.0 0.00 0.00 0.00 68 1009.5
20260505202626 86 227 1.0 1.0 0.00 0.00 0.00 70 1010.1
20260505202122 86 157 6.0 7.0 0.00 0.00 0.00 69 1009.7
20260505201619 86 146 5.0 6.0 0.00 0.00 0.00 69 1010.0
20260505201117 86 224 4.0 5.0 0.00 0.00 0.00 69 1010.2
20260505200615 86 209 5.0 7.0 0.00 0.00 0.00 70 1010.0
20260505200111 86 194 3.0 5.0 0.00 0.00 0.00 68 1010.1
20260505195608 85 189 3.0 3.0 0.00 0.00 0.00 70 1010.2
20260505195106 85 188 1.0 3.0 0.00 0.00 0.00 70 1010.2
20260505194602 86 183 1.0 2.0 0.00 0.00 0.00 70 1010.3
20260505194058 86 188 3.0 3.0 0.00 0.00 0.00 70 1010.6
20260505193555 86 167 2.0 2.0 0.00 0.00 0.00 70 1010.5
20260505193052 86 162 3.0 3.0 0.00 0.00 0.00 70 1010.4
20260505192551 85 171 2.0 6.0 0.00 0.00 0.00 71 1010.6
20260505192048 84 168 4.0 6.0 0.00 0.00 0.00 74 1010.5
20260505191546 84 195 3.0 5.0 0.00 0.00 0.00 72 1010.8
20260505191044 84 135 5.0 6.0 0.00 0.00 0.00 71 1010.7
20260505190538 85 173 2.0 2.0 0.00 0.00 0.00 71 1010.8
20260505190034 86 212 2.0 2.0 0.00 0.00 0.00 72 1010.8
20260505185531 85 286 1.0 2.0 0.00 0.00 0.00 71 1010.9
20260505185027 85 178 3.0 5.0 0.00 0.00 0.00 74 1010.9
20260505184524 84 160 0.0 0.0 0.00 0.00 0.00 73 1010.9
20260505184021 84 156 1.0 1.0 0.00 0.00 0.00 74 1011.1
20260505183518 84 160 2.0 3.0 0.00 0.00 0.00 76 1011.2
20260505183015 83 189 1.0 1.0 0.00 0.00 0.00 74 1011.2
20260505182512 82 236 4.0 6.0 0.00 0.00 0.00 75 1011.2